STARLINK-30340, 57884

Orbit data source: Space-Track

STARLINK-30340, 57884 is a payload satellite owned by SpaceX/Seattle (US) in LEO that was launched on Sat, 16 Sep 2023 UTC via an FALCON 9 launch vehicle from the Air Force Eastern Test Range (AFETR). Payload-class satellites include a variety of spacecraft equipped with specific instruments for various scientific and technological missions. These include communications satellites like Starlink; space stations such as the ISS; scientific satellites like the Hubble; Earth observation satellites from companies like Planet Labs, Umbra, and HawkEye 360; GPS; miniature CubeSats for education and research; and military/defense satellites.

Loading next visibility...
Identifier
57884, 2023-144W
Orbit
LEO
Country
Flag of USUS
Related business
Manufacturer
SpaceX/Seattle
Mission
Operational Commercial Communications
Bus & Motor
STARLINK V2M, Unknown motor
Mass
730 kg wet, ~700 kg dry
Launch date (UTC)
2023-09-16 (2 years ago)
Launch vehicle
FALCON 9
Launch site
Air Force Eastern Test Range (AFETR)
Object type
Payload
Rocket body
Debris
Shape & HBR
Box + 2 Pan, 17.7 m
Radar Cross Section
33.884 m², Large (>1 m²)

Expand to show TLE details & history
Last TLE update: 1 day ago

TLE from 1 day ago
0 STARLINK-30340
1 57884U 23144W   25348.39514971 -.00000399  00000-0 -14487-4 0  9998
2 57884  43.0018  30.6294 0000759 244.3635 115.7129 15.02529296124781
Epoch: 2025-12-14T09:29Z
TLE epoch observation values (Epoch: 2025-12-14T09:29:00.934Z)
Latitude
-0.00004°
Longitude
165.06679°
Altitude
559.107 km
Speed
7.584 km/s
True Right ascension
02h 02m 31s
True Declination
0° 00' 00"
Sunlit
Object was in full shadow at epoch
Visualization orbit readout
Latitude
Unknown
Longitude
Unknown
Altitude
Unknown
Speed
Unknown
Apparent Right ascension
Unknown
Apparent Declination
Unknown
Sunlit
N/A
Visualization observer readout
Local Sidereal Time
15:08:57
Azimuth
Unknown
Elevation
Unknown
Doppler factor
Unknown
Orbital elements
Apogee altitude
561.55 km
Perigee altitude
560.497 km
Semi-major axis
6,939.161 km
Eccentricity
0.00008
Inclination
43.0018°
RAAN
30.6294°
Arg. of periapsis
244.3635°
True anomaly
115.72074°
Mean anomaly
115.7129°
Eccentric anomaly
115.71682°
Mean motion
3.75476 °/min
Orbital period
95.88 mins
BSTAR
-0.000014487
Loading maneuver chart data...
Computing Atmospheric mass density...
Loading historical data...
Loading historical data...
Loading historical data...
Loading historical data...
Loading historical data...
Loading historical data...
Loading historical data...

Documentation

Showing up to 5 results
|